Temp_Advection
nan nan nan nan nan nan nan nan nan nan nan nan nan nan nan nan nan nan nan nan nan nan nan nan nan nan nan nan nan nan nan nan nan nan nan nan nan nan nan nan nan nan
nan -2 -2 -2 -1 0 1 1 1 0 0 0 0 0 -0 0 0 -0 -1 -1 -0 1 2 2 2 2 1 1 1 1 1 1 -0 -0 0 0 0 0 0 0 0 nan
nan -1 -1 -2 -2 -2 -0 1 1 1 0 1 0 -0 -0 0 0 0 -0 -1 -1 0 2 2 1 2 1 1 1 1 0 1 0 0 0 0 0 0 0 1 0 nan
nan 0 -0 -0 -1 -1 -1 -0 0 1 1 1 1 0 0 0 0 0 -0 -1 -1 -0 1 2 1 1 1 1 2 1 0 0 1 1 1 -0 -0 -0 0 0 0 nan
nan 2 1 0 -0 -0 -0 -0 -0 0 1 0 1 1 0 0 -0 0 0 -1 -1 -0 1 2 2 1 1 1 2 2 1 1 1 1 1 -0 -1 -0 0 0 0 nan
nan 2 2 1 0 -0 -0 0 -0 0 1 0 1 1 0 0 0 0 0 -0 -1 -0 1 2 2 1 1 1 2 1 1 1 1 1 1 -0 -0 -0 -0 -0 -0 nan
nan 1 2 2 1 0 -0 -0 -0 0 1 1 1 1 0 0 1 0 0 -0 -1 -1 1 1 2 2 2 2 2 1 0 1 1 1 0 0 0 0 -0 -1 0 nan
nan 1 2 2 2 1 0 -0 -0 -0 0 1 1 0 0 0 1 1 1 0 -1 -1 0 1 2 2 2 2 1 1 1 1 1 1 0 0 0 -0 -0 -0 -0 nan
nan 0 1 2 2 2 1 -0 -0 -0 -1 0 1 0 0 0 1 1 1 1 -0 -1 -0 1 2 2 2 2 1 1 1 1 1 1 0 0 0 -0 0 0 -0 nan
nan 1 1 1 2 3 2 0 -0 1 0 -0 0 1 0 0 1 1 1 1 0 -1 -1 0 1 2 2 1 1 1 1 1 1 1 1 0 -0 -0 0 1 1 nan
nan 1 1 0 1 2 3 1 -1 -0 1 1 0 1 0 0 1 1 2 1 0 -1 -1 -1 1 2 2 2 1 1 1 1 1 1 1 0 0 -0 0 1 1 nan
nan 1 1 1 1 1 2 2 -0 -2 0 1 1 1 1 0 0 1 1 1 1 -0 -1 -1 0 2 2 2 1 1 1 1 1 1 0 1 1 0 0 1 1 nan
nan 1 1 1 1 1 2 2 1 -2 -1 1 1 0 1 0 0 1 1 1 1 0 -0 -1 -0 2 2 2 1 1 1 1 1 1 0 1 1 -0 -0 0 -0 nan
nan 0 1 1 2 1 1 2 2 -1 -2 1 1 0 1 1 0 0 1 1 1 0 -0 -1 -0 1 2 2 1 1 1 1 1 1 0 1 0 -0 -1 -1 -1 nan
nan -0 0 1 2 1 0 1 2 0 -2 0 2 1 1 1 1 0 1 1 1 1 -0 -1 -0 0 1 1 2 1 1 1 1 1 1 0 0 -0 -1 -2 -1 nan
nan -1 -1 0 2 1 0 1 1 0 -1 -0 1 1 1 1 1 1 1 1 1 0 -0 -1 -1 -0 0 2 2 2 1 1 1 1 1 0 -0 -1 -1 -1 -1 nan
nan -1 -1 -0 0 1 1 1 1 0 -1 -1 0 0 1 2 1 1 1 1 1 1 0 -1 -2 -1 1 2 2 1 1 1 0 0 0 -0 -1 -1 -1 -0 0 nan
nan -2 -2 -1 -1 -0 0 1 1 1 -1 -1 -0 -1 0 1 1 1 1 1 1 1 -0 -1 -2 -1 1 2 2 1 0 0 0 -0 -0 -0 -1 -1 -0 0 1 nan
nan -2 -3 -3 -3 -2 -0 0 0 1 -0 -1 -0 -1 -1 1 1 1 1 1 1 0 -0 -1 -1 -0 1 2 2 0 -0 0 1 0 0 -0 -0 -0 -0 0 1 nan
nan -2 -2 -2 -3 -3 -2 -1 -1 -0 0 -0 0 0 -1 -0 1 2 1 1 1 0 0 -1 -1 -1 1 2 2 0 -0 0 1 1 0 0 -0 -0 -0 0 1 nan
nan -2 -2 -2 -2 -2 -2 -2 -2 -1 -1 -1 -1 0 -0 -1 1 2 1 1 1 0 1 -0 -2 -1 1 2 1 0 -0 0 0 1 1 0 0 0 -0 -0 0 nan
nan -3 -3 -3 -3 -3 -3 -3 -2 -2 -1 -1 -1 -0 -0 -1 -0 1 1 1 1 1 1 -1 -2 -1 1 2 1 0 0 0 0 1 1 0 0 0 0 -0 0 nan
nan -4 -4 -4 -3 -3 -3 -3 -2 -2 -3 -2 -1 0 -0 -1 -0 1 1 1 1 1 0 -1 -2 -0 1 1 1 0 0 1 1 1 1 1 0 0 -0 -0 -0 nan
nan -4 -5 -5 -4 -2 -3 -3 -2 -2 -2 -2 -1 0 -0 -1 0 1 1 1 1 0 -0 -1 -1 -0 1 1 1 0 0 1 1 1 1 1 0 -0 -0 -0 -0 nan
nan -3 -4 -4 -5 -3 -2 -3 -3 -2 -2 -2 -1 -0 -1 -1 0 1 1 1 0 -0 -0 -1 -1 -1 0 1 1 1 1 1 1 1 0 0 -0 -0 -0 -0 -0 nan
nan nan nan nan nan nan nan nan nan nan nan nan nan nan nan nan nan nan nan nan nan nan nan nan nan nan nan nan nan nan nan nan nan nan nan nan nan nan nan nan nan nan
Wind_Speed
41 40 39 38 37 37 38 38 39 39 38 40 43 46 48 49 48 47 45 41 37 35 33 31 33 35 35 34 33 32 30 29 29 28 27 27 27 26 25 25 24 23
40 41 41 40 39 38 37 37 38 39 39 39 42 45 46 47 48 48 47 43 39 36 34 32 33 35 36 35 34 33 32 31 30 29 29 28 28 28 27 26 25 25
37 39 40 40 40 39 38 36 36 38 39 40 42 44 46 47 49 49 47 45 40 37 34 33 33 34 36 36 35 34 33 32 31 30 30 30 29 29 28 27 26 25
34 36 38 38 39 39 39 38 37 37 39 41 42 44 46 47 48 48 48 45 41 38 35 34 33 34 36 37 37 35 34 33 32 31 31 31 31 30 29 28 27 27
35 35 35 36 37 39 39 40 40 39 38 41 43 44 46 47 47 47 47 46 43 39 36 35 34 34 35 37 37 37 36 34 33 32 32 32 32 32 31 30 29 28
35 35 34 34 34 36 38 40 42 41 39 40 41 42 45 46 46 46 46 46 44 41 38 35 34 34 35 36 37 37 37 36 34 34 33 33 33 33 32 32 31 30
37 36 35 33 33 33 35 37 40 41 39 39 39 41 44 46 46 46 46 45 44 42 39 36 35 34 35 35 35 36 37 36 35 35 35 35 34 34 33 33 32 31
39 36 35 34 34 35 36 39 41 42 40 38 39 42 44 46 46 45 45 45 45 43 40 37 35 34 34 34 35 36 36 36 35 35 35 35 35 35 35 34 34 33
38 36 35 34 34 35 36 39 41 42 43 42 40 42 43 45 46 45 45 45 45 44 41 38 35 34 34 34 34 35 36 35 35 35 35 36 35 35 34 34 33 32
40 37 35 34 34 34 33 35 37 40 43 45 43 42 43 44 44 45 44 44 45 44 43 39 36 35 34 34 34 34 35 35 35 35 35 36 36 36 35 35 33 30
41 38 35 33 33 32 31 33 37 42 44 46 44 42 42 43 43 44 44 44 45 45 44 41 37 35 34 34 34 33 34 35 35 36 36 37 37 37 36 35 33 30
41 37 34 32 32 31 30 31 36 44 48 46 44 42 41 42 43 43 44 44 45 45 45 42 38 36 34 34 34 33 33 32 31 33 36 36 35 34 34 32 31 31
41 37 35 36 35 30 28 30 34 43 50 47 43 41 40 41 42 43 43 43 44 44 44 42 38 36 34 34 34 33 33 31 28 30 32 32 31 33 34 32 31 33
40 37 37 40 36 28 27 30 31 39 50 48 43 42 40 39 40 42 42 42 43 43 43 42 39 36 34 34 34 33 32 30 27 27 28 28 30 31 32 33 33 34
39 38 41 43 35 26 29 30 24 32 48 50 44 43 41 39 39 40 41 41 42 42 42 42 40 38 35 34 34 33 32 30 27 27 28 29 30 30 31 33 33 33
40 42 43 39 28 23 31 32 24 29 46 50 45 44 42 39 39 39 40 41 41 42 42 42 41 39 36 34 33 31 30 30 29 29 30 31 32 32 33 33 32 32
38 39 37 32 29 33 36 34 29 33 45 50 46 45 43 40 39 39 39 40 41 41 42 43 43 40 37 33 31 28 27 29 31 32 33 33 33 34 34 32 31 31
40 43 42 41 44 44 36 32 33 37 46 49 45 44 44 41 39 39 39 40 40 41 42 43 44 41 36 33 30 27 27 29 33 33 33 33 33 33 33 32 31 30
43 42 42 42 42 39 34 36 40 43 47 48 45 45 45 42 40 39 39 39 39 41 42 43 43 41 36 32 29 27 27 30 33 33 31 30 30 31 30 30 30 28
35 34 37 41 43 44 44 47 48 48 49 49 49 49 47 45 42 39 39 39 39 40 40 42 43 40 35 31 28 27 26 29 31 31 30 29 29 29 28 28 28 27
41 45 48 52 54 53 53 52 50 50 51 52 53 53 49 45 40 38 38 38 38 38 38 41 43 39 34 31 27 26 26 27 30 31 30 30 30 29 29 28 27 27
54 58 61 64 63 60 57 55 53 53 54 54 53 51 46 42 38 37 37 37 37 37 38 41 42 37 33 30 27 25 26 27 29 31 32 31 30 29 29 29 28 27
66 69 70 69 66 60 56 55 54 53 51 48 46 44 40 38 37 36 36 36 36 36 37 39 40 36 32 30 27 24 25 27 30 32 33 34 32 29 28 27 28 27
70 69 67 63 59 54 51 51 49 46 42 39 39 39 37 35 35 35 35 35 35 35 36 37 38 35 32 29 26 24 25 27 30 31 32 32 31 28 26 26 25 25
62 60 58 55 53 50 48 46 44 41 38 36 36 37 36 34 33 33 33 34 33 34 34 35 36 33 30 27 24 23 25 26 29 31 31 29 27 25 25 26 25 24
58 56 53 50 49 48 45 42 39 38 37 35 35 36 35 33 32 31 31 32 32 33 34 34 33 31 29 25 23 22 24 26 29 32 31 28 26 23 23 24 25 27
Wind_Direction
332 331 331 330 325 319 312 305 299 290 280 274 274 275 274 274 272 270 269 270 272 271 268 264 259 255 253 250 247 245 243 243 243 244 243 243 243 243 243 244 245 245
329 328 328 329 328 326 320 311 303 296 287 279 275 274 274 273 271 269 268 267 267 268 266 262 258 254 252 250 247 244 243 241 241 243 243 243 245 245 244 245 245 246
324 325 326 326 327 327 325 318 306 296 291 285 278 275 275 274 272 269 267 265 264 265 264 260 256 253 250 249 247 244 243 242 241 242 243 243 244 245 245 245 244 245
317 318 320 321 323 325 325 322 314 303 294 288 282 279 278 275 273 270 267 264 262 262 261 258 255 253 250 248 247 244 243 243 242 242 241 242 243 243 244 244 244 245
316 313 312 313 318 323 325 323 321 315 303 293 286 281 279 277 275 271 268 264 261 260 260 257 254 252 250 248 246 244 242 241 241 240 239 239 241 242 241 241 241 243
315 311 309 307 309 317 323 325 326 322 311 299 289 281 278 279 277 274 269 264 261 259 258 256 253 250 249 247 245 244 242 240 239 239 237 237 239 241 241 241 240 241
315 310 307 306 306 308 316 324 327 325 318 306 292 282 279 280 279 275 271 265 261 258 257 256 253 250 248 245 242 241 241 240 238 236 236 237 237 239 240 242 240 240
314 310 306 304 305 306 314 326 330 329 325 314 298 288 284 282 280 276 271 266 261 257 256 255 253 251 248 245 241 238 239 239 237 235 235 236 236 237 238 241 241 241
311 310 307 304 304 304 309 322 328 328 327 320 307 296 288 283 281 277 271 266 261 257 255 254 253 251 248 245 242 239 237 236 235 234 233 234 235 235 236 238 239 241
310 308 306 304 305 303 304 314 322 324 324 321 314 302 292 286 281 276 271 264 259 256 254 253 253 251 248 245 242 240 237 234 233 232 232 233 234 236 236 237 237 238
308 306 304 302 303 303 302 310 320 326 326 321 316 308 296 288 282 276 270 264 258 255 253 252 253 252 249 244 242 239 237 234 233 232 232 234 236 238 239 239 237 235
306 302 299 299 300 300 299 302 312 325 329 324 318 312 300 290 283 276 270 264 260 256 253 252 253 252 249 244 241 238 235 233 233 233 235 237 237 238 238 237 235 234
303 299 297 297 296 295 295 295 301 318 328 326 320 315 304 293 284 277 271 267 261 257 253 251 252 251 249 245 241 238 235 233 233 235 237 237 237 239 239 236 234 234
302 300 298 296 293 293 296 294 295 313 326 327 321 316 307 297 287 278 273 268 261 257 253 250 251 250 249 246 242 238 235 233 231 233 235 236 237 240 242 240 237 235
303 301 301 298 292 292 298 296 292 309 321 324 322 318 310 300 289 279 273 267 260 256 252 249 249 249 249 248 244 240 236 232 229 231 233 234 236 239 241 243 242 239
305 304 306 302 293 294 301 300 294 305 317 321 321 320 313 301 290 280 272 267 260 256 252 248 248 250 252 252 248 244 239 232 228 229 231 233 237 239 242 245 248 246
310 310 310 305 302 305 303 300 297 304 315 319 319 319 316 304 292 281 273 267 261 256 251 248 249 252 254 254 249 242 237 233 231 230 232 235 238 242 245 247 249 248
316 316 313 311 310 307 299 296 301 306 314 317 314 316 316 305 292 283 274 267 262 256 252 250 251 253 255 256 249 237 229 232 237 237 236 239 242 245 248 248 248 246
316 316 316 316 314 308 300 302 306 307 311 312 310 311 313 305 292 283 274 267 262 257 254 252 252 252 255 255 248 235 225 227 238 246 246 246 248 248 247 246 244 241
316 315 315 315 313 310 307 306 306 305 306 307 306 305 306 302 292 281 273 267 262 258 256 254 253 253 255 254 244 234 225 222 232 244 250 252 253 252 249 246 244 240
313 311 310 310 309 309 307 304 303 302 302 303 303 301 300 297 290 279 272 267 262 260 257 253 253 254 256 254 244 232 226 222 226 235 243 249 253 254 253 251 248 246
313 311 309 309 307 307 305 302 300 299 300 300 300 299 298 293 285 277 271 266 262 259 255 253 254 255 255 255 246 234 227 224 225 229 233 240 246 250 254 254 251 250
312 310 309 309 307 305 303 301 300 300 300 299 296 297 298 291 283 276 270 265 261 257 253 253 255 255 255 253 247 237 227 221 223 226 229 233 237 241 247 253 254 251
311 311 313 314 313 309 306 305 304 303 301 297 293 296 299 293 282 274 268 264 261 257 255 255 255 256 257 254 246 234 223 222 225 227 230 233 234 234 236 240 246 245
316 318 321 320 317 314 311 308 306 303 303 300 295 298 301 294 280 270 264 261 260 258 256 256 256 258 258 253 244 231 221 223 227 228 230 233 233 231 230 229 231 231
325 326 326 323 320 318 314 309 304 302 304 302 297 300 302 291 276 267 263 260 259 258 257 256 257 260 258 252 244 233 223 221 226 229 230 230 228 227 226 226 228 231
Height
1438 1435 1432 1429 1427 1424 1422 1420 1418 1417 1415 1412 1409 1406 1405 1404 1404 1404 1404 1405 1406 1405 1405 1406 1406 1406 1406 1407 1407 1406 1406 1406 1407 1407 1409 1410 1411 1412 1413 1414 1414 1415
1435 1432 1428 1425 1423 1420 1418 1416 1413 1412 1411 1409 1407 1404 1402 1400 1399 1398 1398 1399 1400 1400 1401 1401 1401 1402 1402 1402 1402 1402 1402 1402 1402 1403 1404 1405 1407 1408 1409 1410 1411 1411
1434 1430 1427 1423 1419 1416 1414 1412 1410 1407 1405 1404 1402 1400 1399 1397 1395 1394 1394 1394 1394 1394 1395 1395 1396 1397 1397 1398 1398 1398 1397 1398 1398 1399 1400 1401 1403 1404 1405 1406 1407 1408
1433 1429 1425 1421 1417 1414 1410 1408 1406 1404 1402 1399 1397 1395 1393 1392 1391 1390 1390 1390 1390 1390 1389 1390 1390 1391 1392 1392 1393 1393 1393 1393 1394 1395 1396 1397 1398 1400 1401 1402 1403 1404
1431 1428 1424 1419 1415 1412 1408 1405 1402 1400 1398 1395 1393 1391 1388 1387 1386 1385 1385 1386 1386 1386 1386 1386 1386 1386 1386 1386 1387 1388 1388 1389 1389 1390 1391 1392 1394 1395 1397 1398 1399 1400
1427 1424 1421 1417 1412 1409 1405 1402 1398 1395 1393 1391 1389 1387 1383 1382 1381 1381 1380 1381 1381 1381 1381 1381 1382 1382 1381 1381 1381 1382 1382 1383 1384 1385 1386 1387 1389 1390 1392 1394 1395 1396
1424 1420 1417 1413 1409 1405 1401 1398 1395 1391 1389 1386 1384 1382 1379 1377 1376 1376 1376 1376 1376 1376 1376 1377 1377 1378 1377 1377 1376 1376 1377 1378 1379 1380 1381 1382 1384 1385 1387 1389 1390 1392
1420 1417 1413 1409 1405 1401 1397 1393 1390 1387 1384 1382 1379 1377 1375 1373 1372 1371 1371 1371 1371 1371 1372 1372 1372 1373 1373 1373 1372 1372 1373 1373 1374 1375 1376 1377 1378 1380 1382 1384 1386 1387
1415 1412 1408 1405 1401 1397 1393 1388 1385 1381 1379 1377 1374 1372 1369 1368 1367 1366 1366 1365 1365 1366 1367 1367 1368 1368 1368 1368 1368 1368 1369 1370 1370 1370 1371 1372 1373 1375 1377 1379 1381 1382
1411 1407 1404 1400 1397 1394 1390 1385 1381 1378 1375 1372 1369 1367 1364 1363 1362 1361 1360 1360 1360 1360 1361 1362 1363 1363 1363 1363 1363 1364 1365 1366 1367 1367 1367 1368 1369 1370 1372 1374 1376 1378
1406 1403 1400 1396 1393 1390 1387 1382 1378 1375 1372 1368 1365 1362 1360 1358 1356 1356 1355 1355 1355 1355 1356 1357 1358 1358 1359 1359 1359 1360 1361 1362 1363 1364 1364 1364 1365 1366 1368 1370 1372 1373
1401 1398 1395 1391 1388 1385 1382 1379 1374 1370 1368 1364 1360 1357 1355 1353 1351 1350 1349 1349 1350 1350 1351 1352 1353 1353 1354 1354 1355 1355 1356 1357 1358 1359 1360 1360 1361 1362 1363 1365 1367 1368
1396 1393 1390 1386 1383 1380 1377 1374 1370 1366 1363 1359 1355 1352 1350 1348 1346 1345 1344 1344 1344 1345 1345 1347 1348 1348 1349 1350 1351 1351 1351 1352 1354 1355 1355 1356 1357 1357 1358 1360 1362 1363
1392 1389 1385 1381 1378 1375 1372 1369 1365 1361 1357 1354 1351 1347 1344 1342 1340 1339 1339 1338 1339 1339 1340 1342 1342 1342 1343 1344 1346 1346 1347 1348 1349 1350 1351 1351 1352 1352 1353 1355 1357 1358
1388 1384 1380 1376 1373 1370 1367 1364 1361 1356 1352 1350 1346 1342 1339 1337 1335 1334 1333 1333 1333 1334 1335 1336 1337 1337 1338 1339 1340 1341 1342 1343 1344 1345 1346 1347 1347 1348 1349 1350 1352 1353
1384 1379 1375 1371 1368 1365 1361 1358 1355 1351 1347 1345 1341 1337 1334 1332 1330 1328 1328 1328 1328 1329 1330 1331 1331 1331 1333 1334 1335 1336 1337 1338 1339 1340 1341 1342 1342 1343 1344 1345 1347 1348
1379 1375 1371 1367 1364 1361 1357 1353 1349 1345 1342 1340 1337 1333 1329 1327 1325 1323 1322 1322 1323 1323 1324 1325 1325 1326 1328 1330 1331 1332 1332 1333 1334 1335 1336 1337 1338 1338 1340 1341 1343 1344
1375 1370 1367 1364 1360 1357 1352 1348 1344 1341 1337 1334 1332 1328 1325 1322 1319 1318 1317 1317 1317 1318 1319 1319 1320 1322 1324 1325 1327 1328 1329 1329 1328 1329 1331 1332 1333 1334 1335 1337 1338 1340
1371 1366 1363 1360 1356 1352 1347 1343 1340 1336 1332 1329 1326 1323 1320 1317 1314 1312 1311 1311 1312 1312 1313 1314 1315 1317 1320 1321 1321 1323 1326 1325 1323 1324 1326 1328 1329 1330 1331 1332 1334 1336
1366 1362 1358 1355 1351 1347 1343 1339 1335 1331 1327 1323 1320 1316 1314 1311 1308 1306 1305 1305 1306 1307 1308 1309 1310 1312 1315 1316 1317 1319 1321 1322 1321 1320 1322 1323 1324 1325 1327 1328 1330 1332
1362 1358 1353 1349 1346 1342 1338 1333 1330 1325 1321 1317 1313 1309 1306 1303 1301 1300 1299 1299 1300 1301 1303 1304 1305 1308 1310 1311 1313 1315 1316 1318 1319 1319 1319 1319 1320 1321 1322 1324 1326 1327
1358 1353 1348 1343 1339 1335 1330 1326 1322 1318 1313 1310 1305 1301 1298 1296 1295 1294 1293 1293 1295 1296 1298 1298 1299 1303 1306 1307 1308 1310 1312 1314 1315 1315 1316 1316 1316 1317 1318 1320 1322 1323
1354 1348 1342 1335 1330 1326 1322 1318 1314 1309 1305 1302 1299 1295 1292 1290 1289 1288 1288 1288 1289 1291 1292 1293 1295 1298 1301 1302 1304 1306 1308 1309 1310 1311 1312 1312 1313 1314 1315 1316 1317 1319
1348 1342 1335 1328 1322 1317 1313 1309 1305 1302 1299 1296 1293 1290 1287 1285 1285 1284 1283 1284 1284 1285 1287 1288 1290 1293 1296 1298 1299 1302 1304 1305 1305 1306 1307 1308 1309 1311 1312 1313 1314 1316
1341 1335 1329 1323 1316 1311 1306 1302 1298 1295 1293 1291 1288 1285 1283 1281 1280 1280 1279 1279 1280 1281 1282 1284 1286 1289 1291 1293 1295 1297 1300 1301 1301 1302 1303 1304 1305 1307 1309 1310 1311 1313
1334 1329 1323 1318 1312 1306 1301 1298 1295 1291 1289 1286 1284 1281 1279 1277 1276 1276 1276 1276 1276 1277 1278 1280 1282 1284 1286 1289 1291 1293 1295 1297 1297 1297 1298 1300 1302 1304 1305 1306 1308 1309